Jesus Hurtado

Scout - Leones
4 Dec 2028
Monday
Process

Personality

Adaptability (12) Ambition (20) Controversy (5) Loyalty (3) Pressure (11) Professionalism (2) Sportsmanship (10) Temperament (15)

Profile

Coaching Style Democratic
License Continental C
Determination 10
Man Management 5
Motivating 9
Discipline 10
Job Satisfaction
100%
Fatigue
0%
Role Scout
Wage 56.5K p/w
Contract 14.03.2029

Performance

Behaviour Good
Training Effectiveness
21%
Player Development
50%
Injury Prevention
45%
Tactical Implementation
35%

Recent Events

Attended a recruitment meeting now
Attended a recruitment meeting 7d ago
Recommended a transfer target 7d ago
Recommended a transfer target 7d ago
Attended a recruitment meeting 14d ago
Recommended a transfer target 14d ago
Recommended a transfer target 14d ago
Recommended a transfer target 21d ago

Currently Monitoring

118
Player Club Status Ability Confidence Watched Last Observed Latest Vote
Andrés Murillo Barranquilla Active 79 / 90 65% 1 06.06.2028 -
Yulián Montaño Depor Active 70 / 87 65% 1 21.06.2027 Approve
Darwin Torres Barranquilla Active 78 / 86 65% 1 07.12.2026 Approve
Daniel Amador Chiapas Active 107 / 94 40% 1 29.11.2026 -
Antonio Salado Ospitaletto Active 96 / 81 40% 1 29.11.2026 -
Matías Contrera Hrvatski Dragovoljac Active 91 / 108 40% 6 28.11.2026 -
Daniel Vašulín Zbrojovka Brno Active 102 / 116 40% 1 28.11.2026 -
José Alvarado Leon Active 102 / 119 40% 1 28.11.2026 -
Misael Sosa Godoy Cruz Active 111 / 113 40% 2 27.11.2026 -
Carlos Gutiérrez Dorados Active 113 / 108 40% 2 27.11.2026 -
Lautaro Gordillo Colegiales Active 117 / 105 40% 1 26.11.2026 -
Tomás González Estudiantes Active 108 / 103 40% 1 24.11.2026 -
Maico Quiroz Güemes Active 120 / 114 40% 1 24.11.2026 -
Pedro Ramírez Deportivo Riestra Active 112 / 120 40% 3 21.11.2026 -
Ariel Castellano Alvarado Active 103 / 100 40% 1 21.11.2026 -
Rômulo Tigres Active 114 / 113 40% 1 21.11.2026 -
Mariano Bracamonte Deportivo Riestra Active 117 / 113 40% 2 20.11.2026 -
Alejo Dramisino Atlanta Active 119 / 118 40% 1 20.11.2026 -
Andi Vidal Irkutsk Active 75 / 85 40% 1 20.11.2026 -
Favio Cabral Mitre Active 112 / 126 40% 2 16.11.2026 -
David Mazuch FK Senica Active 112 / 103 40% 1 16.11.2026 -
Blas Armoa Gimnasia y Esgrima Active 116 / 126 40% 1 14.11.2026 -
Maximiliano Meléndez Chacarita Juniors Active 112 / 120 40% 2 12.11.2026 -
Santiago Martínez Godoy Cruz Active 119 / 107 40% 1 12.11.2026 -
Agustín Paz Progreso Active 121 / 105 40% 1 12.11.2026 -
Gabriel Monjes Hamrun Spartans Active 83 / 96 40% 1 12.11.2026 -
Alex Vigo Independiente Rivadavia Active 115 / 118 40% 1 09.11.2026 -
Gianluca Pugliese Güemes Active 114 / 118 40% 1 09.11.2026 -
Renzo Reynaga Patronato Active 117 / 106 40% 1 09.11.2026 -
Alexander Díaz Deportivo Riestra Active 118 / 119 40% 4 07.11.2026 -
Matías Viguet Maipú Active 119 / 120 40% 2 07.11.2026 -
Elías Pereyra Barracas Central Active 110 / 118 40% 1 07.11.2026 -
Alejo Montero Newell's Old Boys Active 127 / 116 40% 1 06.11.2026 -
Luis Olivera Defensores Unidos Active 118 / 104 40% 1 06.11.2026 -
Jorge Obregón Deportivo Pasto Active 120 / 122 40% 1 05.11.2026 -
Federico Versaci Talleres Active 113 / 108 40% 2 03.11.2026 -
Rodrigo López Pumas UNAM Active 102 / 116 40% 1 03.11.2026 -
Enzo Silcan Almagro Active 108 / 114 40% 3 02.11.2026 -
Gastón Moreyra Almirante Brown Active 105 / 109 40% 1 02.11.2026 -
Andrés Montaño Cruz Azul Active 114 / 130 40% 1 02.11.2026 -
Nicolás Retamar Ferro Carril Oeste Active 123 / 110 40% 2 01.11.2026 -
Juan Pablo Gallego Fehervar Active 119 / 98 40% 2 31.10.2026 -
Franco Vedoya Central Norte Active 119 / 114 40% 1 30.10.2026 -
Martín Campos Ferro Carril Oeste Active 116 / 110 40% 1 30.10.2026 -
Esteban Obregón Montevideo City Torque Active 121 / 121 40% 3 29.10.2026 -
Marcus Vinicius Deportivo Pereira Active 117 / 103 40% 1 28.10.2026 -
Matías Laurino Gornik Leczna Active 82 / 101 40% 1 27.10.2026 -
Leandro Suhr Boston River Active 120 / 113 40% 1 27.10.2026 -
Facundo Lencioni Gimnasia y Esgrima Active 122 / 126 40% 1 25.10.2026 -
Jonathan Pérez Guadalajara Active 124 / 111 40% 1 25.10.2026 -
Gastón Verón Argentinos Juniors Active 121 / 111 40% 1 23.10.2026 -
Alejandro Piedrahita Deportivo Pereira Active 129 / 132 40% 2 21.10.2026 -
Luca Franco Arsenal Active 102 / 113 40% 1 19.10.2026 -
Gaspar Duarte Rosario Central Active 115 / 119 40% 1 19.10.2026 -
Brahian Cuello Unión de Santa Fe Active 109 / 119 40% 1 18.10.2026 -
Robertino Giacomini Panserraikos Active 105 / 108 40% 2 17.10.2026 -
Camilo Machado Madryn Active 104 / 105 40% 1 17.10.2026 -
Julián Brea Cobresal Active 97 / 112 40% 5 15.10.2026 -
Fernando Mimbacas Juventud Active 109 / 102 40% 1 15.10.2026 -
Federico Bisanz Atlanta Active 111 / 109 40% 1 15.10.2026 -
Ezequiel Cañete Huachipato Active 110 / 122 40% 4 14.10.2026 -
Ulises Sánchez Gimnasia y Esgrima Active 130 / 124 40% 1 14.10.2026 -
Agustín Gallo Tristán Suárez Active 112 / 116 40% 1 10.10.2026 -
Alejo Cruz Juventud Active 111 / 120 40% 1 08.10.2026 -
Emerson Batalla Atletico Bucaramanga Active 133 / 113 40% 1 08.10.2026 -
Luciano Cosentino Wanderers Active 125 / 127 40% 3 07.10.2026 -
Julian Herrera Cortulua Active 120 / 120 40% 4 07.10.2026 -
Maximiliano Rueda Patronato Active 118 / 113 40% 2 05.10.2026 -
Ramón González Almirante Brown Active 121 / 115 40% 1 05.10.2026 -
Lisandro Cabrera Maipú Active 123 / 119 40% 1 03.10.2026 -
Ramiro Ruiz Rodríguez Atlético Tucumán Active 115 / 124 40% 3 02.10.2026 -
Iñaki Larthirigoyen San Telmo Active 107 / 123 40% 1 02.10.2026 -
Vicente Poggi Godoy Cruz Active 128 / 117 40% 1 27.09.2026 -
Agustín Amado Boston River Active 107 / 117 40% 1 25.09.2026 -
Brian Calderara Chacarita Juniors Active 107 / 114 40% 1 25.09.2026 -
César Magallan Estudiantes de Merida Active 105 / 107 40% 2 21.09.2026 -
Erik de los Santos Racing Active 118 / 107 40% 1 21.09.2026 -
Agustín Maidana San Marcos de Arica Active 112 / 114 40% 2 20.09.2026 -
Milton Valenzuela Atlas Active 125 / 116 40% 1 20.09.2026 -
Alexis Gutiérrez Club America Active 130 / 115 40% 2 19.09.2026 -
Jonás Luna Wanderers Active 116 / 113 40% 1 19.09.2026 -
Nicolás Latorre Miramar Misiones Active 102 / 114 40% 1 17.09.2026 -
Alan García Wanderers Active 119 / 118 40% 1 17.09.2026 -
Pablo Aránguiz Union Espanola Active 112 / 105 40% 1 16.09.2026 -
Christian Larotonda Caracas Active 121 / 110 40% 1 16.09.2026 -
José Rivera Universitario Active 116 / 113 40% 1 15.09.2026 -
Diego Sánchez Progreso Active 97 / 95 40% 1 15.09.2026 -
Yerko Leiva Union La Calera Active 109 / 111 40% 2 14.09.2026 -
Iván Torregrosa Sibenik Active 76 / 75 40% 1 14.09.2026 -
Delvin Alfonzo Deportivo Tachira Active 122 / 105 40% 2 13.09.2026 -
Nestor Romo Veracruz Active 93 / 121 40% 1 13.09.2026 -
José Alberti Wanderers Active 115 / 117 40% 1 10.09.2026 -
Juan Romero Olimpia Active 120 / 107 40% 2 09.09.2026 -
Ekain Orobengoa Real Sociedad Active 101 / 103 40% 1 09.09.2026 -
Iván Maggi Sportivo Luqueno Active 118 / 113 40% 2 07.09.2026 -
Michael Vadulli Audax Italiano Active 105 / 111 40% 1 05.09.2026 -
José Barragán Zamora Active 103 / 90 40% 1 05.09.2026 -
Marco Collao Audax Italiano Active 113 / 107 40% 1 02.09.2026 -
César González Iquique Active 102 / 98 40% 1 29.08.2026 -
Bryan Rivera Estudiantes de Merida Active 108 / 102 40% 1 27.08.2026 -
Lucas González Nacional Active 100 / 98 40% 1 26.08.2026 -
Mauricio Márquez Caracas Active 106 / 102 40% 2 23.08.2026 -
Jeriel De Santis Caracas Active 98 / 102 40% 2 22.08.2026 -
Ricardo Echeverría Santos Laguna Active 117 / 106 40% 1 21.08.2026 -
Alejandro Organista Puebla Active 94 / 98 40% 1 21.08.2026 -
Jáder Maza Active 119 / 119 30% 1 / 1m 19.08.2026 -
Tobías Donsanti OB Active 85 / 112 40% 1 18.08.2026 -
Santiago Toloza O'Higgins Active 118 / 115 40% 1 18.08.2026 -
Bryan Carvallo Cobresal Active 110 / 105 40% 1 18.08.2026 -
Santiago Simón Toluca Active 124 / 126 40% 1 18.08.2026 -
Junior Paredes Trujillanos Active 104 / 110 40% 1 16.08.2026 -
Alan Cervantes Club America Active 114 / 127 40% 1 14.08.2026 -
Luis Iberico Sporting Cristal Active 113 / 119 40% 1 14.08.2026 -
Paolo Reyna Universitario Active 108 / 111 40% 1 10.08.2026 -
Ronaldo Peña Deportivo Lara Active 103 / 101 40% 1 10.08.2026 -
Diego Crego Independiente Rivadavia Active 119 / 108 40% 1 07.08.2026 -
Cristhián Rivas Estudiantes de Merida Active 111 / 119 40% 1 04.08.2026 -
Brayan Garrido Iquique Active 107 / 104 40% 1 04.08.2026 -